Fort Myers, FL

3:24 AM EST on February 25, 2017 (GMT -0500)
Page

Weather History for KFMY - February, 2014

Change the Weather History Date:

Wednesday, February 12, 2014

  Actual Average Record
Temperature  
Mean Temperature 69 °F 66 °F  
Max Temperature 82 °F 77 °F 88 °F (2001)
Min Temperature 56 °F 56 °F 36 °F (1955)
Degree Days  
Heating Degree Days 0 2  
Month to date heating degree days 0 30  
Since 1 July heating degree days 151 231  
Cooling Degree Days 4 4  
Month to date cooling degree days 99 38  
Year to date cooling degree days 182 121  
Growing Degree Days 19 (Base 50)    
Moisture  
Dew Point 62 °F    
Average Humidity 86    
Maximum Humidity 93    
Minimum Humidity 58    
Precipitation  
Precipitation 0.47 in 0.08 in 1.53 in (2008)
Month to date precipitation 0.48 0.84  
Year to date precipitation 2.64 2.78  
Sea Level Pressure  
Sea Level Pressure 29.91 in    
Wind  
Wind Speed 7 mph (SW)    
Max Wind Speed 23 mph    
Max Gust Speed 29 mph    
Visibility 8 miles    
Events Rain , Thunderstorm    
T = Trace of Precipitation, MM = Missing Value Source: NWS Daily Summary

Daily Weather History Graph

Daily Weather History Graph

Search for Another Location

Airport or City:

Trip Planner

Search our weather history database for the weather conditions in past years. The results will help you decide how hot, cold, wet, or windy it might be!

Date:

Astronomy

Feb. 12, 2014 Rise Set
Actual Time 7:05 AM EST 6:17 PM EST
Civil Twilight 6:41 AM EST 6:41 PM EST
Nautical Twilight 6:14 AM EST 7:09 PM EST
Astronomical Twilight 5:47 AM EST 7:36 PM EST
Moon 4:34 PM EST (2/12) 5:16 AM EST (2/12)
Length of Visible Light 11h 59m
Length of Day
11h 12m
Waxing Gibbous, 95% of the Moon is Illuminated
Feb 12
Waxing Gibbous
Feb 14
Full
Feb 22
Last Quarter
Mar 1
New
Mar 8
First Quarter

Hourly Weather History & Observations

Time (EST) Temp. Heat Index Dew Point Humidity Pressure Visibility Wind Dir Wind Speed Gust Speed Precip Events Conditions
1:53 AM 60.1 °F - 57.0 °F 90% 30.01 in 10.0 mi Calm Calm - N/A   Clear
2:53 AM 59.0 °F - 57.0 °F 93% 30.00 in 10.0 mi Calm Calm - N/A   Clear
3:53 AM 57.9 °F - 55.9 °F 93% 29.99 in 8.0 mi Calm Calm - N/A   Clear
4:53 AM 57.0 °F - 55.9 °F 96% 29.98 in 7.0 mi Calm Calm - N/A   Clear
5:53 AM 57.9 °F - 55.9 °F 93% 29.98 in 7.0 mi Calm Calm - N/A   Clear
6:53 AM 57.0 °F - 55.9 °F 96% 30.00 in 6.0 mi ESE 4.6 mph - N/A   Clear
7:46 AM 59.0 °F - 57.0 °F 93% 30.00 in 6.0 mi SE 5.8 mph - N/A   Mostly Cloudy
7:53 AM 60.1 °F - 57.9 °F 93% 30.01 in 7.0 mi ESE 3.5 mph - N/A   Scattered Clouds
8:53 AM 66.0 °F - 60.1 °F 81% 30.02 in 10.0 mi SSE 4.6 mph - N/A   Partly Cloudy
9:53 AM 72.0 °F - 64.0 °F 76% 30.01 in 10.0 mi South 8.1 mph - N/A   Clear
10:53 AM 77.0 °F - 66.0 °F 69% 29.98 in 10.0 mi South 11.5 mph - N/A   Partly Cloudy
11:53 AM 80.1 °F 81.9 °F 64.9 °F 60% 29.96 in 10.0 mi South 9.2 mph - N/A   Clear
12:53 PM 81.0 °F 83.0 °F 66.0 °F 60% 29.92 in 10.0 mi South 15.0 mph 21.9 mph N/A   Partly Cloudy
1:53 PM 81.0 °F 83.0 °F 66.0 °F 60% 29.88 in 10.0 mi South 12.7 mph - N/A   Clear
2:53 PM 80.1 °F 82.3 °F 66.9 °F 64% 29.85 in 10.0 mi SSW 15.0 mph 21.9 mph N/A   Clear
3:53 PM 79.0 °F - 68.0 °F 69% 29.82 in 10.0 mi SSW 13.8 mph 20.7 mph N/A   Partly Cloudy
4:53 PM 77.0 °F - 68.0 °F 74% 29.84 in 10.0 mi South 13.8 mph 25.3 mph N/A   Partly Cloudy
5:53 PM 75.0 °F - 66.9 °F 76% 29.84 in 10.0 mi South 8.1 mph - N/A   Mostly Cloudy
6:53 PM 75.0 °F - 68.0 °F 79% 29.85 in 10.0 mi SSW 8.1 mph - N/A   Overcast
7:25 PM 66.9 °F - 60.1 °F 79% 29.89 in 8.0 mi WNW 12.7 mph 26.5 mph 0.00 in Rain Light Rain
7:29 PM 66.0 °F - 61.0 °F 84% 29.88 in 5.0 mi NW 12.7 mph 24.2 mph 0.01 in Rain , Thunderstorm Rain
7:40 PM 64.0 °F - 62.1 °F 93% 29.88 in 1.8 mi WNW 23.0 mph 28.8 mph 0.09 in Rain , Thunderstorm Heavy Thunderstorms and Rain
7:53 PM 64.0 °F - 63.0 °F 96% 29.89 in 1.5 mi West 11.5 mph - 0.30 in Rain , Thunderstorm Heavy Thunderstorms and Rain
8:00 PM 64.0 °F - 63.0 °F 96% 29.89 in 2.5 mi West 10.4 mph - 0.05 in Rain , Thunderstorm Thunderstorms and Rain
8:09 PM 64.0 °F - 63.0 °F 96% 29.88 in 2.5 mi WNW 10.4 mph - 0.10 in Rain , Thunderstorm Thunderstorms and Rain
8:16 PM 64.0 °F - 62.1 °F 93% 29.87 in 6.0 mi WNW 13.8 mph 19.6 mph 0.10 in Rain , Thunderstorm Light Thunderstorms and Rain
8:24 PM 64.0 °F - 62.1 °F 93% 29.88 in 7.0 mi WNW 10.4 mph - 0.11 in Rain , Thunderstorm Light Rain
8:39 PM 64.0 °F - 62.1 °F 93% 29.89 in 10.0 mi WNW 10.4 mph - 0.12 in Rain Light Rain
8:46 PM 64.0 °F - 62.1 °F 93% 29.89 in 9.0 mi WNW 9.2 mph - 0.12 in Rain Light Rain
8:53 PM 64.0 °F - 62.1 °F 93% 29.89 in 6.0 mi WNW 6.9 mph - 0.13 in Rain Light Rain
9:03 PM 64.0 °F - 62.1 °F 93% 29.87 in 5.0 mi WNW 4.6 mph - 0.02 in Rain Light Rain
9:11 PM 64.0 °F - 63.0 °F 96% 29.86 in 6.0 mi Calm Calm - 0.03 in Rain Light Rain
9:53 PM 64.0 °F - 63.0 °F 96% 29.81 in 10.0 mi East 4.6 mph - 0.04 in   Scattered Clouds
10:53 PM 64.0 °F - 63.0 °F 96% 29.82 in 10.0 mi South 8.1 mph - N/A   Clear
11:53 PM 64.9 °F - 63.0 °F 93% 29.80 in 10.0 mi South 8.1 mph - N/A   Clear